Weather History for Erzincan, Turkey

Change the Weather History Date:

Saturday, January 5, 2013

  Actual Average Record
Temperature  
Mean Temperature 26 °F -  
Max Temperature 36 °F 35 °F - ()
Min Temperature 16 °F 20 °F - ()
Degree Days  
Heating Degree Days 39    
Moisture  
Dew Point 22 °F    
Average Humidity 80    
Maximum Humidity 100    
Minimum Humidity 40    
Precipitation  
Precipitation 0.04 in 0.04 in - ()
Sea Level Pressure  
Sea Level Pressure 29.81 in    
Wind  
Wind Speed 2 mph ()    
Max Wind Speed 7 mph    
Max Gust Speed -    
Visibility 6.2 miles    
Events Snow    
T = Trace of Precipitation, MM = Missing Value Source: Averaged Metar Reports

Daily Weather History Graph

Daily Weather History Graph

Search for Another Location

Airport:

Trip Planner

Search our weather history database for the weather conditions in past years. The results will help you decide how hot, cold, wet, or windy it might be!

Date:

Astronomy

Jan. 05, 2013 Rise Set
Actual Time 6:43 AM EET 4:11 PM EET
Civil Twilight 6:13 AM EET 4:41 PM EET
Nautical Twilight 5:39 AM EET 5:15 PM EET
Astronomical Twilight 5:06 AM EET 5:48 PM EET
Moon No Moon Rise 10:48 AM EET (1/5)
Length of Visible Light 10h 28m
Length of Day
9h 28m
Waning Gibbous, 47% of the Moon is Illuminated
Jan 5
Waning Gibbous
Jan 11
New
Jan 19
First Quarter
Jan 27
Full
Feb 3
Last Quarter

Hourly Weather History & Observations

Time (EET) Temp. Windchill Dew Point Humidity Pressure Visibility Wind Dir Wind Speed Gust Speed Precip Events Conditions
12:50 AM 19.4 °F - 15.8 °F 86% 29.98 in - Calm Calm - N/A   Clear
1:50 AM 17.6 °F - 17.6 °F 100% 29.98 in - Calm Calm - N/A   Clear
2:00 AM 18 °F - 16 °F 90%  in 6 mi Calm Calm - -  
2:50 AM 19.4 °F 14.3 °F 17.6 °F 93% 29.95 in - NE 3.5 mph - N/A   Clear
3:50 AM 17.6 °F - 15.8 °F 93% 29.92 in - Calm Calm - N/A   Clear
4:50 AM 17.6 °F 12.3 °F 15.8 °F 93% 29.92 in 6.2 mi SW 3.5 mph - N/A   Scattered Clouds
5:50 AM 21.2 °F - 17.6 °F 86% 29.89 in 6.2 mi Calm Calm - N/A   Scattered Clouds
6:50 AM 21.2 °F - 19.4 °F 93% 29.89 in 6.2 mi East 2.3 mph - N/A   Mostly Cloudy
8:00 AM 22 °F - 20 °F 90%  in 6 mi Calm Calm - -   Partly Cloudy
8:50 AM 24.8 °F - 19.4 °F 80% 29.86 in 6.2 mi SW 2.3 mph - N/A   Mostly Cloudy
9:50 AM 28.4 °F - 21.2 °F 74% 29.86 in 6.2 mi Calm Calm - N/A   Mostly Cloudy
10:50 AM 32.0 °F - 21.2 °F 64% 29.83 in 6.2 mi Calm Calm - N/A   Mostly Cloudy
11:50 AM 35.6 °F - 23.0 °F 60% 29.77 in 6.2 mi Variable 1.2 mph - N/A   Mostly Cloudy
12:50 PM 35.6 °F 32.8 °F 21.2 °F 56% 29.74 in 6.2 mi West 3.5 mph - N/A   Mostly Cloudy
1:50 PM 37.4 °F 34.9 °F 21.2 °F 52% 29.74 in 6.2 mi West 3.5 mph - N/A   Mostly Cloudy
2:00 PM 37 °F - 21 °F 40%  in 6 mi West 3.5 mph - -   Partly Cloudy
2:50 PM 35.6 °F 30.7 °F 26.6 °F 70% 29.74 in 6.2 mi NW 5.8 mph - N/A   Mostly Cloudy
3:50 PM 35.6 °F 32.8 °F 26.6 °F 70% 29.74 in 6.2 mi South 3.5 mph - N/A   Mostly Cloudy
4:50 PM 32.0 °F - 28.4 °F 87% 29.74 in 6.2 mi Variable 1.2 mph - N/A   Mostly Cloudy
5:50 PM 30.2 °F 25.4 °F 26.6 °F 86% 29.74 in 6.2 mi North 4.6 mph - N/A   Mostly Cloudy
6:50 PM 32.0 °F 27.5 °F 26.6 °F 80% 29.74 in 6.2 mi NW 4.6 mph - N/A   Mostly Cloudy
7:50 PM 32.0 °F 28.7 °F 26.6 °F 80% 29.74 in 6.2 mi NW 3.5 mph - N/A   Mostly Cloudy
8:00 PM 31 °F - 26 °F 75%  in 6 mi NW 3.5 mph - -   Partly Cloudy
8:50 PM 32.0 °F 27.5 °F 28.4 °F 87% 29.74 in 6.2 mi West 4.6 mph - N/A   Mostly Cloudy
9:50 PM 30.2 °F 23.4 °F 28.4 °F 93% 29.74 in 6.2 mi NW 6.9 mph - N/A Snow Light Snow
10:50 PM 30.2 °F 26.7 °F 28.4 °F 93% 29.74 in 6.2 mi NNW 3.5 mph - N/A Snow Light Snow
11:50 PM 30.2 °F - 30.2 °F 100% 29.74 in 6.2 mi Variable 1.2 mph - N/A Snow Light Snow